N583VC KUGN-KMCD

Flight info

Callsign N583VC
Flight time 1h 11m
Altitude 23000
Route BRTMN TAAYZ FAALZ
Aircraft B60T/L-SDFGRY/C

Departure

Time 2026-05-04 00:32
Airport Waukegan National Airport (KUGN)

Arrival

Time 2026-05-04 01:43
Airport Mackinac Island Airport (KMCD)
Time Latitude Longitude Altitude Speed Heading
2026-05-04 00:12 42.41867 -87.86810 707 ft 0 kts 68°
2026-05-04 00:29 42.41891 -87.86801 705 ft 9 kts 320°
2026-05-04 00:29 42.41946 -87.86828 708 ft 10 kts 72°
2026-05-04 00:29 42.41995 -87.86758 702 ft 16 kts 47°
2026-05-04 00:30 42.41999 -87.86664 704 ft 12 kts 143°
2026-05-04 00:30 42.41930 -87.86601 703 ft 12 kts 145°
2026-05-04 00:30 42.41909 -87.86565 705 ft 0 kts 86°
2026-05-04 00:30 42.41916 -87.86532 705 ft 13 kts 59°
2026-05-04 00:31 42.41954 -87.86508 695 ft 0 kts 325°
2026-05-04 00:32 42.42015 -87.86572 702 ft 42 kts 324°
2026-05-04 00:32 42.42467 -87.86969 804 ft 102 kts 321°
2026-05-04 00:32 42.43058 -87.87541 1347 ft 113 kts 314°
2026-05-04 00:32 42.43770 -87.88197 1918 ft 128 kts 319°
2026-05-04 00:33 42.44520 -87.88880 2561 ft 133 kts 320°
2026-05-04 00:33 42.46626 -87.88164 3023 ft 206 kts 38°
2026-05-04 00:33 42.47672 -87.86748 3020 ft 217 kts 41°
2026-05-04 00:34 42.48753 -87.85275 3010 ft 222 kts 41°
2026-05-04 00:34 42.49838 -87.83785 3010 ft 222 kts 41°
2026-05-04 00:34 42.50918 -87.82293 3010 ft 222 kts 41°
2026-05-04 00:34 42.52027 -87.80862 3002 ft 217 kts 30°
2026-05-04 00:35 42.53380 -87.80211 3011 ft 202 kts 354°
2026-05-04 00:35 42.54703 -87.80603 3082 ft 188 kts 334°
2026-05-04 00:35 42.55873 -87.80991 3838 ft 162 kts 345°
2026-05-04 00:35 42.56952 -87.81107 4552 ft 150 kts 347°
2026-05-04 00:36 42.57965 -87.81183 5177 ft 142 kts 348°
2026-05-04 00:36 42.58943 -87.81252 5793 ft 140 kts 348°
2026-05-04 00:36 42.59907 -87.81318 6422 ft 138 kts 349°
2026-05-04 00:36 42.60858 -87.81380 7013 ft 136 kts 349°
2026-05-04 00:37 42.61795 -87.81440 7604 ft 134 kts 348°
2026-05-04 00:37 42.62720 -87.81501 8189 ft 132 kts 348°
2026-05-04 00:37 42.63635 -87.81560 8772 ft 131 kts 348°
2026-05-04 00:37 42.64539 -87.81620 9316 ft 133 kts 348°
2026-05-04 00:38 42.65480 -87.81680 9864 ft 134 kts 348°
2026-05-04 00:38 42.66401 -87.81738 10373 ft 134 kts 348°
2026-05-04 00:38 42.67337 -87.81799 10893 ft 134 kts 348°
2026-05-04 00:38 42.68268 -87.81859 11412 ft 134 kts 348°
2026-05-04 00:39 42.69205 -87.81921 11873 ft 139 kts 348°
2026-05-04 00:39 42.70213 -87.81989 12201 ft 150 kts 349°
2026-05-04 00:39 42.71276 -87.82055 12587 ft 155 kts 349°
2026-05-04 00:39 42.72361 -87.82122 12996 ft 157 kts 349°
2026-05-04 00:40 42.73468 -87.82130 13417 ft 159 kts 351°
2026-05-04 00:40 42.74577 -87.82173 13798 ft 160 kts 350°
2026-05-04 00:40 42.75682 -87.82210 14173 ft 160 kts 350°
2026-05-04 00:40 42.76795 -87.82240 14552 ft 160 kts 350°
2026-05-04 00:41 42.77912 -87.82269 14941 ft 160 kts 350°
2026-05-04 00:41 42.79026 -87.82299 15338 ft 160 kts 349°
2026-05-04 00:41 42.80131 -87.82327 15756 ft 158 kts 349°
2026-05-04 00:41 42.81230 -87.82355 16169 ft 157 kts 349°
2026-05-04 00:42 42.82320 -87.82384 16576 ft 156 kts 349°
2026-05-04 00:42 42.83406 -87.82412 16982 ft 155 kts 349°
2026-05-04 00:42 42.84489 -87.82441 17390 ft 155 kts 348°
2026-05-04 00:42 42.85564 -87.82469 17797 ft 154 kts 348°
2026-05-04 00:43 42.86637 -87.82496 18185 ft 154 kts 348°
2026-05-04 00:43 42.87703 -87.82526 18539 ft 156 kts 348°
2026-05-04 00:43 42.88798 -87.82555 18953 ft 158 kts 348°
2026-05-04 00:43 42.89898 -87.82583 19354 ft 158 kts 348°
2026-05-04 00:44 42.91002 -87.82611 19797 ft 159 kts 349°
2026-05-04 00:44 42.92105 -87.82639 20229 ft 159 kts 349°
2026-05-04 00:44 42.93209 -87.82667 20669 ft 158 kts 349°
2026-05-04 00:44 42.94307 -87.82696 21108 ft 158 kts 349°
2026-05-04 00:45 42.95409 -87.82725 21549 ft 157 kts 349°
2026-05-04 00:45 42.96500 -87.82753 21984 ft 157 kts 349°
2026-05-04 00:45 42.97589 -87.82782 22415 ft 156 kts 349°
2026-05-04 00:45 42.98677 -87.82811 22852 ft 156 kts 349°
2026-05-04 00:46 42.99793 -87.82847 22985 ft 172 kts 350°
2026-05-04 00:46 43.01059 -87.82884 22969 ft 191 kts 351°
2026-05-04 00:46 43.02450 -87.82915 22873 ft 208 kts 352°
2026-05-04 00:46 43.03937 -87.82947 22773 ft 219 kts 352°
2026-05-04 00:47 43.05484 -87.82983 22754 ft 225 kts 352°
2026-05-04 00:47 43.07059 -87.83022 22756 ft 228 kts 352°
2026-05-04 00:47 43.08657 -87.83063 22750 ft 231 kts 353°
2026-05-04 00:47 43.10280 -87.83106 22762 ft 234 kts 353°
2026-05-04 00:48 43.11915 -87.83148 22761 ft 236 kts 353°
2026-05-04 00:48 43.13563 -87.83191 22761 ft 238 kts 353°
2026-05-04 00:48 43.15223 -87.83233 22764 ft 239 kts 353°
2026-05-04 00:48 43.16888 -87.83277 22762 ft 239 kts 353°
2026-05-04 00:49 43.18554 -87.83320 22761 ft 240 kts 353°
2026-05-04 00:49 43.20226 -87.83364 22761 ft 240 kts 353°
2026-05-04 00:49 43.21897 -87.83407 22758 ft 241 kts 353°
2026-05-04 00:49 43.23569 -87.83452 22758 ft 240 kts 353°
2026-05-04 00:50 43.25243 -87.83495 22755 ft 240 kts 353°
2026-05-04 00:50 43.26915 -87.83540 22755 ft 240 kts 353°
2026-05-04 00:50 43.28587 -87.83583 22754 ft 240 kts 353°
2026-05-04 00:50 43.30256 -87.83627 22753 ft 240 kts 353°
2026-05-04 00:51 43.31924 -87.83671 22751 ft 240 kts 353°
2026-05-04 00:51 43.33593 -87.83715 22749 ft 240 kts 353°
2026-05-04 00:51 43.35257 -87.83758 22747 ft 239 kts 353°
2026-05-04 00:51 43.36901 -87.83802 22745 ft 239 kts 353°
2026-05-04 00:52 43.38565 -87.83846 22744 ft 239 kts 353°
2026-05-04 00:52 43.40232 -87.83890 22743 ft 239 kts 353°
2026-05-04 00:52 43.41901 -87.83934 22739 ft 240 kts 353°
2026-05-04 00:52 43.43567 -87.83978 22739 ft 239 kts 353°
2026-05-04 00:53 43.45229 -87.84022 22742 ft 239 kts 353°
2026-05-04 00:53 43.46891 -87.84066 22741 ft 239 kts 353°
2026-05-04 00:53 43.48552 -87.84110 22741 ft 238 kts 353°
2026-05-04 00:53 43.50212 -87.84154 22736 ft 238 kts 353°
2026-05-04 00:54 43.51314 -87.84183 22730 ft 238 kts 353°
2026-05-04 00:54 43.52971 -87.84227 22730 ft 238 kts 353°
2026-05-04 00:54 43.54626 -87.84271 22729 ft 238 kts 353°
2026-05-04 00:54 43.56283 -87.84315 22730 ft 238 kts 353°
2026-05-04 00:55 43.57940 -87.84358 22730 ft 238 kts 353°
2026-05-04 00:55 43.59594 -87.84403 22720 ft 238 kts 353°
2026-05-04 00:55 43.61250 -87.84447 22727 ft 238 kts 353°
2026-05-04 00:55 43.62904 -87.84491 22719 ft 238 kts 353°
2026-05-04 00:56 43.64555 -87.84534 22719 ft 237 kts 353°
2026-05-04 00:56 43.66206 -87.84579 22717 ft 237 kts 353°
2026-05-04 00:56 43.67855 -87.84622 22717 ft 237 kts 353°
2026-05-04 00:56 43.69502 -87.84666 22716 ft 237 kts 353°
2026-05-04 00:57 43.71151 -87.84710 22713 ft 237 kts 353°
2026-05-04 00:57 43.72797 -87.84754 22713 ft 236 kts 353°
2026-05-04 00:57 43.74446 -87.84798 22712 ft 236 kts 353°
2026-05-04 00:57 43.76078 -87.84570 22714 ft 244 kts
2026-05-04 00:58 43.77636 -87.83556 22719 ft 255 kts 27°
2026-05-04 00:58 43.78972 -87.81827 22718 ft 262 kts 38°
2026-05-04 00:58 43.80224 -87.79994 22720 ft 262 kts 38°
2026-05-04 00:58 43.81480 -87.78167 22718 ft 263 kts 38°
2026-05-04 00:59 43.82726 -87.76360 22719 ft 262 kts 38°
2026-05-04 00:59 43.83984 -87.74536 22720 ft 262 kts 38°
2026-05-04 00:59 43.85240 -87.72712 22720 ft 262 kts 38°
2026-05-04 00:59 43.86512 -87.70862 22742 ft 261 kts 38°
2026-05-04 01:00 43.87771 -87.69032 22711 ft 263 kts 38°
2026-05-04 01:00 43.89014 -87.67224 22711 ft 263 kts 38°
2026-05-04 01:00 43.90272 -87.65388 22710 ft 263 kts 38°
2026-05-04 01:00 43.91547 -87.63530 22710 ft 263 kts 38°
2026-05-04 01:01 43.92790 -87.61717 22707 ft 263 kts 38°
2026-05-04 01:01 43.94064 -87.59858 22708 ft 263 kts 38°
2026-05-04 01:01 43.95323 -87.58020 22707 ft 263 kts 38°
2026-05-04 01:01 43.96581 -87.56181 22706 ft 263 kts 38°
2026-05-04 01:02 43.97823 -87.54365 22707 ft 263 kts 38°
2026-05-04 01:02 43.99081 -87.52525 22707 ft 263 kts 38°
2026-05-04 01:02 44.00338 -87.50682 22720 ft 263 kts 38°
2026-05-04 01:02 44.01596 -87.48841 22710 ft 263 kts 38°
2026-05-04 01:03 44.02854 -87.46996 22710 ft 263 kts 38°
2026-05-04 01:03 44.04111 -87.45152 22707 ft 263 kts 38°
2026-05-04 01:03 44.05366 -87.43309 22707 ft 263 kts 38°
2026-05-04 01:03 44.06621 -87.41466 22707 ft 262 kts 38°
2026-05-04 01:04 44.07876 -87.39620 22710 ft 262 kts 38°
2026-05-04 01:04 44.09128 -87.37778 22711 ft 262 kts 38°
2026-05-04 01:04 44.10380 -87.35935 22711 ft 262 kts 38°
2026-05-04 01:04 44.11633 -87.34090 22711 ft 262 kts 38°
2026-05-04 01:05 44.12884 -87.32247 22712 ft 262 kts 38°
2026-05-04 01:05 44.14138 -87.30399 22708 ft 263 kts 38°
2026-05-04 01:05 44.15395 -87.28543 22708 ft 263 kts 38°
2026-05-04 01:05 44.16653 -87.26684 22709 ft 264 kts 38°
2026-05-04 01:06 44.17912 -87.24823 22717 ft 264 kts 38°
2026-05-04 01:06 44.19174 -87.22958 22718 ft 264 kts 38°
2026-05-04 01:06 44.20435 -87.21087 22717 ft 265 kts 38°
2026-05-04 01:06 44.21698 -87.19219 22718 ft 265 kts 38°
2026-05-04 01:07 44.22959 -87.17351 22718 ft 264 kts 38°
2026-05-04 01:07 44.24217 -87.15486 22718 ft 264 kts 38°
2026-05-04 01:07 44.25478 -87.13614 22718 ft 264 kts 38°
2026-05-04 01:07 44.26738 -87.11743 22717 ft 264 kts 38°
2026-05-04 01:08 44.27994 -87.09878 22720 ft 264 kts 38°
2026-05-04 01:08 44.29251 -87.08009 22720 ft 264 kts 38°
2026-05-04 01:08 44.30505 -87.06143 22720 ft 264 kts 38°
2026-05-04 01:08 44.31760 -87.04275 22720 ft 264 kts 38°
2026-05-04 01:09 44.33016 -87.02404 22717 ft 264 kts 38°
2026-05-04 01:09 44.34272 -87.00531 22717 ft 264 kts 38°
2026-05-04 01:09 44.35527 -86.98658 22711 ft 264 kts 38°
2026-05-04 01:09 44.36783 -86.96785 22711 ft 264 kts 38°
2026-05-04 01:10 44.38022 -86.94933 22711 ft 264 kts 38°
2026-05-04 01:10 44.39280 -86.93054 22722 ft 265 kts 38°
2026-05-04 01:10 44.40542 -86.91167 22722 ft 265 kts 38°
2026-05-04 01:10 44.41803 -86.89277 22722 ft 265 kts 38°
2026-05-04 01:11 44.43065 -86.87388 22716 ft 265 kts 38°
2026-05-04 01:11 44.44326 -86.85498 22716 ft 265 kts 38°
2026-05-04 01:11 44.45584 -86.83610 22716 ft 265 kts 38°
2026-05-04 01:11 44.46846 -86.81717 22716 ft 266 kts 38°
2026-05-04 01:12 44.48108 -86.79820 22717 ft 265 kts 38°
2026-05-04 01:12 44.49368 -86.77927 22720 ft 265 kts 38°
2026-05-04 01:12 44.50626 -86.76034 22720 ft 265 kts 38°
2026-05-04 01:12 44.51886 -86.74140 22720 ft 265 kts 38°
2026-05-04 01:13 44.53144 -86.72245 22719 ft 265 kts 38°
2026-05-04 01:13 44.54402 -86.70349 22719 ft 265 kts 38°
2026-05-04 01:13 44.55641 -86.68480 22719 ft 265 kts 38°
2026-05-04 01:13 44.56899 -86.66582 22729 ft 265 kts 38°
2026-05-04 01:14 44.58156 -86.64684 22713 ft 266 kts 38°
2026-05-04 01:14 44.59411 -86.62787 22713 ft 265 kts 38°
2026-05-04 01:14 44.60666 -86.60889 22713 ft 265 kts 38°
2026-05-04 01:14 44.61920 -86.58992 22713 ft 265 kts 38°
2026-05-04 01:15 44.63172 -86.57096 22715 ft 265 kts 38°
2026-05-04 01:15 44.64428 -86.55195 22719 ft 265 kts 38°
2026-05-04 01:15 44.65680 -86.53294 22718 ft 265 kts 38°
2026-05-04 01:15 44.66934 -86.51391 22718 ft 265 kts 38°
2026-05-04 01:16 44.68187 -86.49489 22716 ft 265 kts 38°
2026-05-04 01:16 44.69441 -86.47584 22718 ft 265 kts 38°
2026-05-04 01:16 44.70695 -86.45677 22718 ft 265 kts 38°
2026-05-04 01:16 44.71949 -86.43769 22715 ft 265 kts 38°
2026-05-04 01:17 44.73203 -86.41860 22709 ft 266 kts 38°
2026-05-04 01:17 44.74453 -86.39954 22709 ft 265 kts 38°
2026-05-04 01:17 44.75704 -86.38047 22709 ft 265 kts 38°
2026-05-04 01:17 44.76985 -86.36196 22708 ft 263 kts 35°
2026-05-04 01:18 44.78288 -86.34375 22711 ft 264 kts 36°
2026-05-04 01:18 44.79570 -86.32520 22709 ft 264 kts 37°
2026-05-04 01:18 44.80844 -86.30655 22709 ft 264 kts 37°
2026-05-04 01:18 44.82121 -86.28794 22709 ft 264 kts 37°
2026-05-04 01:19 44.83401 -86.26934 22706 ft 264 kts 37°
2026-05-04 01:19 44.84678 -86.25076 22706 ft 264 kts 37°
2026-05-04 01:19 44.85958 -86.23213 22707 ft 264 kts 37°
2026-05-04 01:19 44.87234 -86.21351 22707 ft 264 kts 37°
2026-05-04 01:20 44.88515 -86.19483 22707 ft 264 kts 37°
2026-05-04 01:20 44.89787 -86.17625 22719 ft 264 kts 37°
2026-05-04 01:20 44.91070 -86.15753 22714 ft 265 kts 37°
2026-05-04 01:20 44.92335 -86.13905 22714 ft 265 kts 37°
2026-05-04 01:21 44.93616 -86.12030 22713 ft 266 kts 37°
2026-05-04 01:21 44.94900 -86.10150 22717 ft 266 kts 37°
2026-05-04 01:21 44.96183 -86.08271 22716 ft 266 kts 37°
2026-05-04 01:21 44.97467 -86.06389 22710 ft 266 kts 37°
2026-05-04 01:22 44.98749 -86.04508 22709 ft 266 kts 37°
2026-05-04 01:22 45.00032 -86.02627 22710 ft 266 kts 37°
2026-05-04 01:22 45.01313 -86.00743 22707 ft 266 kts 37°
2026-05-04 01:22 45.02596 -85.98858 22710 ft 266 kts 37°
2026-05-04 01:23 45.03882 -85.96967 22709 ft 266 kts 37°
2026-05-04 01:23 45.05163 -85.95082 22714 ft 266 kts 37°
2026-05-04 01:23 45.06446 -85.93192 22716 ft 266 kts 37°
2026-05-04 01:23 45.07724 -85.91308 22712 ft 266 kts 37°
2026-05-04 01:24 45.09003 -85.89421 22710 ft 266 kts 37°
2026-05-04 01:24 45.10282 -85.87534 22709 ft 266 kts 37°
2026-05-04 01:24 45.11590 -85.85611 22370 ft 275 kts 37°
2026-05-04 01:24 45.12912 -85.83657 21999 ft 280 kts 37°
2026-05-04 01:25 45.14245 -85.81671 21578 ft 278 kts 38°
2026-05-04 01:25 45.15579 -85.79695 21171 ft 276 kts 37°
2026-05-04 01:25 45.16908 -85.77729 20768 ft 276 kts 38°
2026-05-04 01:25 45.18234 -85.75765 20377 ft 275 kts 38°
2026-05-04 01:26 45.19553 -85.73807 19950 ft 273 kts 38°
2026-05-04 01:26 45.20847 -85.71882 19515 ft 268 kts 38°
2026-05-04 01:26 45.22126 -85.69985 19085 ft 264 kts 38°
2026-05-04 01:26 45.23394 -85.68104 18663 ft 264 kts 38°
2026-05-04 01:27 45.24670 -85.66211 18260 ft 267 kts 38°
2026-05-04 01:27 45.25956 -85.64295 17840 ft 269 kts 38°
2026-05-04 01:27 45.27247 -85.62367 17390 ft 269 kts 38°
2026-05-04 01:27 45.28537 -85.60440 16944 ft 269 kts 38°
2026-05-04 01:28 45.29810 -85.58541 16504 ft 262 kts 38°
2026-05-04 01:28 45.31054 -85.56685 16100 ft 258 kts 38°
2026-05-04 01:28 45.32283 -85.54851 15673 ft 255 kts 38°
2026-05-04 01:28 45.33499 -85.53035 15263 ft 253 kts 38°
2026-05-04 01:29 45.34708 -85.51227 14856 ft 251 kts 38°
2026-05-04 01:29 45.35911 -85.49428 14463 ft 250 kts 38°
2026-05-04 01:29 45.37104 -85.47640 14075 ft 249 kts 38°
2026-05-04 01:29 45.38296 -85.45855 13694 ft 248 kts 38°
2026-05-04 01:30 45.39479 -85.44080 13306 ft 246 kts 38°
2026-05-04 01:30 45.40652 -85.42319 12946 ft 244 kts 38°
2026-05-04 01:30 45.41817 -85.40570 12587 ft 243 kts 38°
2026-05-04 01:30 45.42979 -85.38827 12232 ft 242 kts 38°
2026-05-04 01:31 45.44120 -85.37110 11886 ft 241 kts 38°
2026-05-04 01:31 45.45263 -85.35388 11546 ft 237 kts 38°
2026-05-04 01:31 45.46392 -85.33691 11233 ft 238 kts 38°
2026-05-04 01:31 45.47566 -85.31931 10974 ft 250 kts 39°
2026-05-04 01:32 45.48758 -85.30122 10696 ft 249 kts 39°
2026-05-04 01:32 45.49945 -85.28329 10427 ft 249 kts 39°
2026-05-04 01:32 45.51121 -85.26554 10115 ft 244 kts 39°
2026-05-04 01:32 45.52284 -85.24801 9805 ft 242 kts 39°
2026-05-04 01:33 45.53438 -85.23059 9492 ft 241 kts 39°
2026-05-04 01:33 45.54214 -85.21887 9265 ft 240 kts 39°
2026-05-04 01:33 45.55343 -85.20178 8953 ft 239 kts 39°
2026-05-04 01:33 45.56469 -85.18467 8612 ft 235 kts 39°
2026-05-04 01:34 45.57600 -85.16761 8291 ft 236 kts 40°
2026-05-04 01:34 45.58712 -85.15069 7964 ft 229 kts 40°
2026-05-04 01:34 45.59775 -85.13452 7635 ft 220 kts 39°
2026-05-04 01:34 45.60843 -85.11851 7361 ft 232 kts 39°
2026-05-04 01:35 45.61973 -85.10144 7111 ft 236 kts 41°
2026-05-04 01:35 45.63030 -85.08503 6845 ft 212 kts 40°
2026-05-04 01:35 45.64007 -85.07017 6563 ft 200 kts 39°
2026-05-04 01:35 45.64953 -85.05594 6283 ft 195 kts 40°
2026-05-04 01:36 45.65926 -85.04139 6020 ft 216 kts 40°
2026-05-04 01:36 45.67003 -85.02506 5789 ft 231 kts 42°
2026-05-04 01:36 45.68062 -85.00850 5529 ft 209 kts 42°
2026-05-04 01:36 45.69011 -84.99395 5256 ft 198 kts 40°
2026-05-04 01:37 45.69950 -84.97980 4982 ft 194 kts 41°
2026-05-04 01:37 45.70882 -84.96566 4716 ft 192 kts 41°
2026-05-04 01:37 45.71774 -84.95203 4482 ft 188 kts 41°
2026-05-04 01:37 45.72661 -84.93849 4287 ft 185 kts 41°
2026-05-04 01:38 45.73535 -84.92514 4114 ft 182 kts 41°
2026-05-04 01:38 45.74389 -84.91209 3996 ft 179 kts 40°
2026-05-04 01:38 45.75237 -84.89914 3871 ft 178 kts 41°
2026-05-04 01:38 45.76086 -84.88602 3738 ft 185 kts 40°
2026-05-04 01:39 45.76999 -84.87224 3626 ft 195 kts 40°
2026-05-04 01:39 45.77939 -84.85784 3532 ft 200 kts 41°
2026-05-04 01:39 45.78888 -84.84323 3450 ft 201 kts 41°
2026-05-04 01:39 45.79841 -84.82857 3352 ft 201 kts 41°
2026-05-04 01:40 45.80800 -84.81385 3264 ft 202 kts 41°
2026-05-04 01:40 45.81756 -84.79916 3175 ft 202 kts 41°
2026-05-04 01:40 45.82714 -84.78445 3083 ft 202 kts 41°
2026-05-04 01:40 45.83668 -84.76973 3002 ft 202 kts 43°
2026-05-04 01:41 45.84377 -84.75197 2893 ft 206 kts 70°
2026-05-04 01:41 45.84718 -84.73299 2762 ft 180 kts 72°
2026-05-04 01:41 45.85015 -84.71694 2541 ft 152 kts 71°
2026-05-04 01:41 45.85275 -84.70298 2188 ft 143 kts 70°
2026-05-04 01:42 45.85521 -84.68986 2079 ft 128 kts 70°
2026-05-04 01:42 45.85755 -84.67778 1825 ft 121 kts 73°
2026-05-04 01:42 45.85958 -84.66655 1310 ft 110 kts 77°
2026-05-04 01:42 45.86139 -84.65670 949 ft 91 kts 78°
2026-05-04 01:43 45.86307 -84.64749 824 ft 98 kts 76°
2026-05-04 01:43 45.86462 -84.63922 744 ft 61 kts 75°
2026-05-04 01:43 45.86527 -84.63548 741 ft 24 kts 78°
2026-05-04 01:43 45.86473 -84.63487 741 ft 7 kts 166°
2026-05-04 01:44 45.86419 -84.63432 744 ft 15 kts 78°
2026-05-04 01:44 45.86426 -84.63433 742 ft 6 kts 207°
2026-05-04 01:44 45.86442 -84.63450 743 ft 8 kts 359°
2026-05-04 01:44 45.86450 -84.63453 742 ft 0 kts 346°